When you browse on this site, cookies collect data to enhance your experience and personalize the content and advertising you see.
Visit our Privacy Policy to learn more. By continuing to use the site, you agree to this use of cookies and data.

Hourly Weather Ciuciuleni

Today, 26 September, Saturday

Time Temperature Precipitation Wind Pressure Humidity
00:00 +16°C° 0 mm 3 mps 737 mmHg 84%
01:00 +16°C° 0 mm 3 mps 737 mmHg 88%
02:00 +16°C° 0 mm 3 mps 736 mmHg 90%
03:00 +16°C° 0 mm 3 mps 736 mmHg 91%
04:00 +15°C° 0 mm 4 mps 736 mmHg 93%
05:00 +15°C° 0 mm 4 mps 735 mmHg 94%
06:00 +16°C° 0 mm 5 mps 735 mmHg 89%
07:00 +17°C° 0 mm 6 mps 735 mmHg 84%
08:00 +18°C° 0 mm 7 mps 735 mmHg 80%
09:00 +22°C° 0 mm 7 mps 735 mmHg 67%
10:00 +24°C° 0 mm 8 mps 735 mmHg 55%
11:00 +28°C° 0 mm 9 mps 735 mmHg 43%
12:00 +28°C° 0 mm 9 mps 734 mmHg 42%
13:00 +29°C° 0 mm 9 mps 733 mmHg 41%
14:00 +29°C° 0 mm 10 mps 733 mmHg 40%
15:00 +28°C° 0 mm 10 mps 732 mmHg 44%
16:00 +27°C° 0 mm 10 mps 732 mmHg 47%
17:00 +26°C° 0 mm 10 mps 731 mmHg 50%
18:00 +24°C° 0.5 mm 9 mps 731 mmHg 60%
19:00 +22°C° 0.5 mm 9 mps 731 mmHg 70%
20:00 +20°C° 0.5 mm 8 mps 731 mmHg 80%
21:00 +20°C° 0.2 mm 8 mps 731 mmHg 78%
22:00 +20°C° 0.2 mm 8 mps 731 mmHg 77%
23:00 +21°C° 0.2 mm 8 mps 731 mmHg 75%

Tomorrow, 27 September, Sunday

Time Temperature Precipitation Wind Pressure Humidity
00:00 +20°C° 3.3 mm 8 mps 731 mmHg 78%
01:00 +19°C° 3.3 mm 9 mps 730 mmHg 82%
02:00 +19°C° 3.3 mm 9 mps 730 mmHg 85%
03:00 +18°C° 0.7 mm 8 mps 731 mmHg 82%
04:00 +17°C° 0.7 mm 8 mps 731 mmHg 79%
05:00 +15°C° 0.7 mm 7 mps 731 mmHg 76%
06:00 +15°C° 0 mm 7 mps 732 mmHg 74%
07:00 +15°C° 0 mm 7 mps 733 mmHg 72%
08:00 +16°C° 0 mm 7 mps 734 mmHg 70%
09:00 +17°C° 0 mm 7 mps 735 mmHg 61%
10:00 +20°C° 0 mm 6 mps 736 mmHg 52%
11:00 +22°C° 0 mm 6 mps 737 mmHg 43%
12:00 +22°C° 0 mm 6 mps 737 mmHg 40%
13:00 +23°C° 0 mm 5 mps 738 mmHg 38%
14:00 +25°C° 0 mm 5 mps 738 mmHg 35%
15:00 +23°C° 0 mm 4 mps 739 mmHg 36%
16:00 +24°C° 0 mm 3 mps 740 mmHg 37%
17:00 +23°C° 0 mm 2 mps 740 mmHg 39%
18:00 +21°C° 0 mm 2 mps 741 mmHg 42%
19:00 +20°C° 0 mm 1 mps 741 mmHg 45%
20:00 +19°C° 0 mm 1 mps 742 mmHg 48%
21:00 +18°C° 0 mm 1 mps 742 mmHg 50%
22:00 +18°C° 0 mm 1 mps 743 mmHg 52%
23:00 +16°C° 0 mm 2 mps 744 mmHg 55%

Day after tomorrow, 28 September, Monday

Time Temperature Precipitation Wind Pressure Humidity
00:00 +15°C° 0 mm 1 mps 744 mmHg 57%
01:00 +15°C° 0 mm 1 mps 744 mmHg 58%
02:00 +15°C° 0 mm 1 mps 744 mmHg 60%
03:00 +14°C° 0 mm 1 mps 744 mmHg 64%
04:00 +14°C° 0 mm 1 mps 744 mmHg 68%
05:00 +13°C° 0 mm 1 mps 744 mmHg 72%
06:00 +14°C° 0 mm 1 mps 745 mmHg 66%
07:00 +16°C° 0 mm 1 mps 745 mmHg 60%
08:00 +17°C° 0 mm 2 mps 745 mmHg 54%
09:00 +19°C° 0 mm 3 mps 745 mmHg 47%
10:00 +21°C° 0 mm 4 mps 745 mmHg 39%
11:00 +23°C° 0 mm 5 mps 745 mmHg 32%
12:00 +25°C° 0 mm 5 mps 745 mmHg 31%
13:00 +26°C° 0 mm 6 mps 744 mmHg 29%
14:00 +27°C° 0 mm 7 mps 744 mmHg 27%
15:00 +26°C° 0 mm 6 mps 744 mmHg 29%
16:00 +24°C° 0 mm 6 mps 743 mmHg 32%
17:00 +23°C° 0 mm 6 mps 743 mmHg 34%
18:00 +22°C° 0 mm 6 mps 743 mmHg 39%
19:00 +20°C° 0 mm 5 mps 743 mmHg 45%
20:00 +19°C° 0 mm 5 mps 743 mmHg 50%
21:00 +17°C° 0 mm 5 mps 743 mmHg 56%
22:00 +17°C° 0 mm 4 mps 742 mmHg 62%
23:00 +17°C° 0 mm 4 mps 742 mmHg 69%

29 September, Tuesday

Time Temperature Precipitation Wind Pressure Humidity
00:00 +16°C° 0 mm 3 mps 742 mmHg 74%
01:00 +16°C° 0 mm 3 mps 741 mmHg 80%
02:00 +16°C° 0 mm 3 mps 741 mmHg 86%
03:00 +16°C° 0.3 mm 2 mps 741 mmHg 88%
04:00 +16°C° 0.3 mm 2 mps 740 mmHg 89%
05:00 +16°C° 0.3 mm 1 mps 740 mmHg 91%
06:00 +18°C° 0.9 mm 1 mps 740 mmHg 90%
07:00 +17°C° 0.9 mm 2 mps 740 mmHg 89%
08:00 +18°C° 0.9 mm 2 mps 739 mmHg 88%
09:00 +19°C° 1.5 mm 2 mps 739 mmHg 85%
10:00 +19°C° 1.5 mm 2 mps 739 mmHg 83%
11:00 +20°C° 1.5 mm 2 mps 739 mmHg 80%
12:00 +20°C° 1.1 mm 3 mps 738 mmHg 78%
13:00 +21°C° 1.1 mm 4 mps 738 mmHg 76%
14:00 +21°C° 1.1 mm 5 mps 738 mmHg 74%
15:00 +20°C° 0.7 mm 5 mps 738 mmHg 77%
16:00 +19°C° 0.7 mm 4 mps 737 mmHg 80%
17:00 +18°C° 0.7 mm 4 mps 737 mmHg 83%
18:00 +17°C° 0.2 mm 4 mps 737 mmHg 84%
19:00 +17°C° 0.2 mm 3 mps 737 mmHg 85%
20:00 +16°C° 0.2 mm 3 mps 737 mmHg 86%
21:00 +16°C° 0.1 mm 3 mps 737 mmHg 87%
22:00 +16°C° 0.1 mm 3 mps 737 mmHg 88%
23:00 +14°C° 0.1 mm 3 mps 737 mmHg 88%

30 September, Wednesday

Time Temperature Precipitation Wind Pressure Humidity
00:00 +14°C° 0 mm 3 mps 737 mmHg 89%
01:00 +14°C° 0 mm 4 mps 737 mmHg 89%
02:00 +13°C° 0 mm 4 mps 737 mmHg 90%
03:00 +13°C° 0.1 mm 5 mps 736 mmHg 90%
04:00 +13°C° 0.1 mm 5 mps 736 mmHg 90%
05:00 +13°C° 0.1 mm 6 mps 736 mmHg 90%
06:00 +13°C° 0 mm 6 mps 736 mmHg 87%
07:00 +12°C° 0 mm 7 mps 736 mmHg 84%
08:00 +14°C° 0 mm 7 mps 736 mmHg 81%
09:00 +15°C° 0 mm 7 mps 736 mmHg 76%
10:00 +16°C° 0 mm 7 mps 736 mmHg 71%
11:00 +16°C° 0 mm 7 mps 737 mmHg 65%
12:00 +17°C° 0 mm 7 mps 736 mmHg 61%
13:00 +18°C° 0 mm 7 mps 736 mmHg 58%
14:00 +18°C° 0 mm 7 mps 736 mmHg 54%
15:00 +19°C° 0 mm 6 mps 736 mmHg 55%
16:00 +17°C° 0 mm 5 mps 736 mmHg 57%
17:00 +18°C° 0 mm 4 mps 736 mmHg 59%
18:00 +17°C° 0 mm 3 mps 736 mmHg 62%
19:00 +16°C° 0 mm 2 mps 736 mmHg 66%
20:00 +15°C° 0 mm 1 mps 736 mmHg 69%
21:00 +15°C° 0 mm 1 mps 736 mmHg 71%
22:00 +14°C° 0 mm 1 mps 736 mmHg 72%
23:00 +14°C° 0 mm 1 mps 736 mmHg 74%

1 October, Thursday

Time Temperature Precipitation Wind Pressure Humidity
00:00 +14°C° 0 mm 1 mps 736 mmHg 75%
01:00 +13°C° 0 mm 2 mps 736 mmHg 77%
02:00 +13°C° 0 mm 2 mps 736 mmHg 78%
03:00 +13°C° 0 mm 2 mps 736 mmHg 78%
04:00 +13°C° 0 mm 2 mps 736 mmHg 79%
05:00 +12°C° 0 mm 2 mps 736 mmHg 79%
06:00 +13°C° 0 mm 2 mps 736 mmHg 74%
07:00 +14°C° 0 mm 2 mps 736 mmHg 69%
08:00 +15°C° 0 mm 2 mps 736 mmHg 64%
09:00 +17°C° 0 mm 4 mps 736 mmHg 57%
10:00 +19°C° 0 mm 5 mps 736 mmHg 51%
11:00 +20°C° 0 mm 6 mps 736 mmHg 45%
12:00 +21°C° 0 mm 6 mps 736 mmHg 43%
13:00 +22°C° 0 mm 6 mps 736 mmHg 41%
14:00 +22°C° 0 mm 5 mps 736 mmHg 39%
15:00 +22°C° 0 mm 4 mps 736 mmHg 41%
16:00 +21°C° 0 mm 3 mps 736 mmHg 44%
17:00 +20°C° 0 mm 2 mps 736 mmHg 46%
18:00 +19°C° 0 mm 2 mps 737 mmHg 49%
19:00 +18°C° 0 mm 3 mps 737 mmHg 52%
20:00 +17°C° 0 mm 3 mps 737 mmHg 54%
21:00 +16°C° 0 mm 2 mps 737 mmHg 59%
22:00 +15°C° 0 mm 2 mps 737 mmHg 65%
23:00 +14°C° 0 mm 2 mps 737 mmHg 70%
Show more